UAL1152 KSLC-KSFO

Flight info

Callsign UAL1152
Flight time 1h 35m
Altitude 36000
Route DEZRT2 BAM LLC LEGGS BDEGA4
Aircraft B737/M-SDE2E3FGHIRWXY/LB1

Departure

Time 2026-05-08 05:21
Airport Salt Lake City International Airport (KSLC)

Arrival

Time 2026-05-08 06:56
Airport San Francisco International Airport (KSFO)
Time Latitude Longitude Altitude Speed Heading
2026-05-08 04:45 40.78842 -111.98546 4231 ft 0 kts 355°
2026-05-08 05:05 40.78828 -111.98542 4222 ft 2 kts 338°
2026-05-08 05:05 40.78815 -111.98530 4229 ft 2 kts 319°
2026-05-08 05:05 40.78800 -111.98523 4230 ft 2 kts 358°
2026-05-08 05:06 40.78789 -111.98523 4230 ft 2 kts
2026-05-08 05:06 40.78774 -111.98531 4230 ft 2 kts 55°
2026-05-08 05:06 40.78771 -111.98537 4229 ft 0 kts 80°
2026-05-08 05:11 40.78771 -111.98530 4231 ft 3 kts 81°
2026-05-08 05:12 40.78776 -111.98481 4232 ft 6 kts 84°
2026-05-08 05:12 40.78781 -111.98420 4232 ft 9 kts 84°
2026-05-08 05:12 40.78789 -111.98298 4230 ft 15 kts 85°
2026-05-08 05:12 40.78799 -111.98139 4230 ft 18 kts 85°
2026-05-08 05:13 40.78811 -111.97970 4233 ft 18 kts 85°
2026-05-08 05:13 40.78820 -111.97877 4233 ft 0 kts 82°
2026-05-08 05:15 40.78821 -111.97871 4233 ft 3 kts 82°
2026-05-08 05:15 40.78827 -111.97817 4233 ft 10 kts 82°
2026-05-08 05:15 40.78825 -111.97699 4230 ft 16 kts 103°
2026-05-08 05:15 40.78804 -111.97643 4232 ft 1 kts 133°
2026-05-08 05:16 40.78780 -111.97650 4231 ft 10 kts 193°
2026-05-08 05:16 40.78678 -111.97667 4232 ft 17 kts 182°
2026-05-08 05:16 40.78564 -111.97657 4230 ft 16 kts 175°
2026-05-08 05:16 40.78445 -111.97643 4227 ft 18 kts 175°
2026-05-08 05:17 40.78326 -111.97629 4227 ft 17 kts 175°
2026-05-08 05:17 40.78209 -111.97616 4227 ft 16 kts 175°
2026-05-08 05:17 40.78100 -111.97603 4226 ft 16 kts 175°
2026-05-08 05:17 40.77994 -111.97591 4250 ft 15 kts 175°
2026-05-08 05:18 40.77897 -111.97549 4253 ft 14 kts 153°
2026-05-08 05:18 40.77803 -111.97519 4250 ft 14 kts 176°
2026-05-08 05:18 40.77709 -111.97509 4253 ft 13 kts 175°
2026-05-08 05:18 40.77620 -111.97500 4252 ft 13 kts 175°
2026-05-08 05:19 40.77531 -111.97488 4251 ft 13 kts 173°
2026-05-08 05:19 40.77467 -111.97482 4251 ft 0 kts 177°
2026-05-08 05:19 40.77457 -111.97478 4251 ft 2 kts 157°
2026-05-08 05:19 40.77443 -111.97430 4250 ft 12 kts 76°
2026-05-08 05:20 40.77536 -111.97326 4249 ft 21 kts
2026-05-08 05:20 40.77558 -111.97327 4249 ft 0 kts 355°
2026-05-08 05:20 40.77761 -111.97348 4250 ft 67 kts 354°
2026-05-08 05:20 40.78472 -111.97433 4229 ft 136 kts 355°
2026-05-08 05:21 40.79597 -111.97568 4350 ft 180 kts 354°
2026-05-08 05:21 40.80864 -111.97656 5101 ft 185 kts 355°
2026-05-08 05:21 40.82041 -111.98217 6003 ft 184 kts 319°
2026-05-08 05:21 40.82802 -111.99655 6482 ft 205 kts 294°
2026-05-08 05:22 40.83385 -112.01508 6713 ft 231 kts 291°
2026-05-08 05:22 40.84004 -112.03579 6949 ft 251 kts 291°
2026-05-08 05:22 40.84631 -112.05747 7549 ft 252 kts 291°
2026-05-08 05:22 40.85056 -112.07972 8288 ft 254 kts 276°
2026-05-08 05:23 40.85150 -112.10315 9017 ft 255 kts 274°
2026-05-08 05:23 40.85236 -112.12698 9591 ft 269 kts 275°
2026-05-08 05:23 40.85351 -112.15215 10241 ft 279 kts 275°
2026-05-08 05:23 40.85494 -112.17879 10502 ft 304 kts 276°
2026-05-08 05:24 40.85666 -112.20748 10701 ft 330 kts 276°
2026-05-08 05:24 40.85863 -112.23853 11096 ft 346 kts 276°
2026-05-08 05:24 40.86071 -112.27039 11846 ft 349 kts 276°
2026-05-08 05:24 40.86283 -112.30227 12722 ft 349 kts 276°
2026-05-08 05:25 40.86498 -112.33429 13148 ft 349 kts 276°
2026-05-08 05:25 40.86714 -112.36633 13287 ft 351 kts 276°
2026-05-08 05:25 40.86930 -112.39846 13284 ft 351 kts 276°
2026-05-08 05:25 40.87133 -112.43059 13265 ft 351 kts 275°
2026-05-08 05:26 40.87082 -112.46286 13270 ft 352 kts 267°
2026-05-08 05:26 40.86836 -112.49535 13571 ft 358 kts 266°
2026-05-08 05:26 40.86588 -112.52825 14300 ft 361 kts 267°
2026-05-08 05:26 40.86356 -112.56120 15089 ft 361 kts 267°
2026-05-08 05:27 40.86125 -112.59441 15780 ft 366 kts 267°
2026-05-08 05:27 40.85860 -112.62807 16396 ft 371 kts 266°
2026-05-08 05:27 40.85578 -112.66221 17015 ft 376 kts 266°
2026-05-08 05:27 40.85291 -112.69680 17638 ft 381 kts 266°
2026-05-08 05:28 40.85002 -112.73172 18259 ft 385 kts 266°
2026-05-08 05:28 40.84712 -112.76713 18757 ft 390 kts 266°
2026-05-08 05:28 40.84417 -112.80299 19270 ft 394 kts 266°
2026-05-08 05:28 40.84141 -112.83916 19802 ft 398 kts 269°
2026-05-08 05:29 40.84066 -112.87582 20321 ft 401 kts 272°
2026-05-08 05:29 40.84085 -112.91278 20832 ft 405 kts 273°
2026-05-08 05:29 40.84130 -112.95009 21332 ft 409 kts 274°
2026-05-08 05:29 40.84175 -112.98781 21819 ft 413 kts 273°
2026-05-08 05:30 40.84211 -113.02591 22293 ft 417 kts 273°
2026-05-08 05:30 40.84235 -113.06439 22770 ft 421 kts 273°
2026-05-08 05:30 40.84251 -113.10321 23225 ft 425 kts 273°
2026-05-08 05:30 40.84262 -113.14234 23656 ft 428 kts 272°
2026-05-08 05:31 40.84268 -113.18175 24111 ft 429 kts 273°
2026-05-08 05:31 40.84271 -113.22119 24566 ft 431 kts 273°
2026-05-08 05:31 40.84273 -113.26088 25003 ft 432 kts 273°
2026-05-08 05:31 40.84274 -113.30069 25423 ft 434 kts 273°
2026-05-08 05:32 40.84275 -113.34066 25829 ft 436 kts 273°
2026-05-08 05:32 40.84274 -113.38084 26232 ft 439 kts 273°
2026-05-08 05:32 40.84271 -113.42126 26624 ft 441 kts 273°
2026-05-08 05:32 40.84268 -113.46182 26981 ft 443 kts 273°
2026-05-08 05:33 40.84263 -113.50256 27340 ft 445 kts 273°
2026-05-08 05:33 40.84256 -113.54353 27702 ft 447 kts 274°
2026-05-08 05:33 40.84248 -113.58466 28061 ft 449 kts 274°
2026-05-08 05:33 40.84238 -113.62550 28409 ft 451 kts 274°
2026-05-08 05:34 40.84227 -113.66696 28743 ft 453 kts 274°
2026-05-08 05:34 40.84214 -113.70859 29106 ft 454 kts 274°
2026-05-08 05:34 40.84199 -113.75024 29589 ft 452 kts 274°
2026-05-08 05:34 40.84184 -113.79157 30135 ft 449 kts 274°
2026-05-08 05:35 40.84166 -113.83262 30613 ft 446 kts 274°
2026-05-08 05:35 40.84146 -113.87360 31018 ft 445 kts 274°
2026-05-08 05:35 40.84123 -113.91442 31399 ft 445 kts 274°
2026-05-08 05:35 40.84097 -113.95522 31809 ft 444 kts 274°
2026-05-08 05:36 40.84070 -113.99598 32251 ft 441 kts 274°
2026-05-08 05:36 40.84042 -114.03635 32678 ft 440 kts 274°
2026-05-08 05:36 40.84013 -114.07666 33051 ft 439 kts 274°
2026-05-08 05:36 40.83984 -114.11640 33425 ft 438 kts 274°
2026-05-08 05:37 40.83953 -114.15654 33782 ft 437 kts 274°
2026-05-08 05:37 40.83921 -114.19662 34106 ft 436 kts 274°
2026-05-08 05:37 40.83887 -114.23658 34415 ft 435 kts 274°
2026-05-08 05:37 40.83852 -114.27642 34729 ft 433 kts 274°
2026-05-08 05:38 40.83815 -114.31614 35022 ft 432 kts 274°
2026-05-08 05:38 40.83778 -114.35577 35302 ft 431 kts 274°
2026-05-08 05:38 40.83739 -114.39527 35566 ft 430 kts 274°
2026-05-08 05:38 40.83700 -114.43471 35779 ft 430 kts 274°
2026-05-08 05:39 40.83659 -114.47426 35982 ft 431 kts 274°
2026-05-08 05:39 40.83572 -114.55349 35992 ft 430 kts 274°
2026-05-08 05:40 40.83480 -114.63247 36002 ft 430 kts 274°
2026-05-08 05:40 40.83384 -114.71097 35993 ft 430 kts 274°
2026-05-08 05:41 40.83007 -114.78997 35998 ft 434 kts 267°
2026-05-08 05:41 40.82079 -114.86887 35990 ft 435 kts 265°
2026-05-08 05:42 40.81120 -114.94778 35993 ft 435 kts 266°
2026-05-08 05:42 40.80201 -115.02664 35970 ft 435 kts 266°
2026-05-08 05:43 40.79297 -115.10545 35984 ft 434 kts 266°
2026-05-08 05:43 40.78390 -115.18433 35984 ft 435 kts 266°
2026-05-08 05:44 40.77476 -115.26315 35991 ft 435 kts 266°
2026-05-08 05:44 40.76557 -115.34198 35976 ft 435 kts 265°
2026-05-08 05:45 40.75629 -115.42098 35982 ft 436 kts 265°
2026-05-08 05:45 40.74694 -115.49996 35985 ft 436 kts 265°
2026-05-08 05:46 40.73759 -115.57839 35989 ft 436 kts 265°
2026-05-08 05:46 40.72814 -115.65733 35954 ft 436 kts 265°
2026-05-08 05:47 40.71865 -115.73613 35969 ft 435 kts 265°
2026-05-08 05:47 40.70912 -115.81489 35965 ft 434 kts 265°
2026-05-08 05:48 40.69954 -115.89348 35959 ft 434 kts 265°
2026-05-08 05:48 40.68992 -115.97208 35949 ft 435 kts 264°
2026-05-08 05:49 40.68023 -116.05071 35956 ft 435 kts 264°
2026-05-08 05:49 40.67049 -116.12927 35956 ft 435 kts 264°
2026-05-08 05:50 40.66068 -116.20796 35965 ft 435 kts 264°
2026-05-08 05:50 40.65082 -116.28663 35948 ft 436 kts 264°
2026-05-08 05:51 40.64089 -116.36536 35961 ft 436 kts 264°
2026-05-08 05:51 40.63091 -116.44408 35966 ft 436 kts 264°
2026-05-08 05:52 40.62085 -116.52292 36004 ft 437 kts 264°
2026-05-08 05:52 40.61074 -116.60180 36021 ft 437 kts 263°
2026-05-08 05:53 40.60057 -116.68062 36060 ft 437 kts 263°
2026-05-08 05:53 40.59034 -116.75957 36091 ft 438 kts 263°
2026-05-08 05:54 40.58006 -116.83849 36091 ft 438 kts 263°
2026-05-08 05:54 40.56956 -116.91750 36082 ft 439 kts 261°
2026-05-08 05:55 40.55172 -116.99455 36083 ft 442 kts 254°
2026-05-08 05:55 40.53112 -117.07072 36063 ft 442 kts 253°
2026-05-08 05:56 40.51405 -117.13417 36036 ft 442 kts 253°
2026-05-08 05:56 40.49383 -117.21053 35959 ft 442 kts 253°
2026-05-08 05:57 40.47376 -117.28686 35967 ft 442 kts 253°
2026-05-08 05:57 40.45366 -117.36320 35967 ft 443 kts 253°
2026-05-08 05:58 40.43348 -117.43957 35966 ft 443 kts 253°
2026-05-08 05:58 40.41325 -117.51589 35964 ft 442 kts 253°
2026-05-08 05:59 40.39295 -117.59220 35970 ft 443 kts 253°
2026-05-08 05:59 40.37271 -117.66806 35972 ft 444 kts 253°
2026-05-08 06:00 40.35228 -117.74439 35981 ft 444 kts 253°
2026-05-08 06:00 40.33177 -117.82080 35978 ft 444 kts 253°
2026-05-08 06:01 40.31121 -117.89718 35983 ft 444 kts 253°
2026-05-08 06:01 40.29060 -117.97346 35978 ft 444 kts 253°
2026-05-08 06:02 40.26996 -118.04968 35980 ft 444 kts 253°
2026-05-08 06:02 40.24929 -118.12572 35983 ft 443 kts 252°
2026-05-08 06:03 40.22860 -118.20167 35983 ft 443 kts 252°
2026-05-08 06:03 40.20783 -118.27764 35979 ft 443 kts 252°
2026-05-08 06:04 40.18716 -118.35304 35988 ft 443 kts 252°
2026-05-08 06:04 40.16630 -118.42892 35985 ft 443 kts 252°
2026-05-08 06:05 40.14540 -118.50477 35990 ft 444 kts 252°
2026-05-08 06:05 40.12441 -118.58063 35985 ft 444 kts 251°
2026-05-08 06:06 40.10227 -118.65603 35986 ft 445 kts 250°
2026-05-08 06:06 40.07944 -118.73114 35990 ft 445 kts 250°
2026-05-08 06:07 40.05664 -118.80620 36062 ft 445 kts 250°
2026-05-08 06:07 40.03388 -118.88137 36031 ft 445 kts 250°
2026-05-08 06:08 40.01133 -118.95588 36017 ft 445 kts 250°
2026-05-08 06:08 39.98857 -119.03087 36007 ft 445 kts 249°
2026-05-08 06:09 39.96576 -119.10581 36010 ft 445 kts 249°
2026-05-08 06:09 39.94289 -119.18072 36019 ft 445 kts 249°
2026-05-08 06:10 39.91996 -119.25566 36030 ft 445 kts 249°
2026-05-08 06:10 39.89711 -119.33011 36024 ft 446 kts 249°
2026-05-08 06:11 39.87405 -119.40500 36030 ft 446 kts 249°
2026-05-08 06:11 39.85095 -119.47987 36033 ft 445 kts 249°
2026-05-08 06:12 39.82783 -119.55456 36076 ft 445 kts 249°
2026-05-08 06:12 39.80467 -119.62920 36128 ft 445 kts 249°
2026-05-08 06:13 39.78146 -119.70377 36168 ft 444 kts 249°
2026-05-08 06:13 39.75824 -119.77819 36202 ft 444 kts 249°
2026-05-08 06:14 39.73499 -119.85250 36225 ft 444 kts 249°
2026-05-08 06:14 39.71173 -119.92661 36221 ft 443 kts 249°
2026-05-08 06:15 39.68847 -120.00057 36219 ft 442 kts 249°
2026-05-08 06:15 39.67683 -120.03752 36079 ft 442 kts 249°
2026-05-08 06:15 39.66518 -120.07441 36092 ft 441 kts 249°
2026-05-08 06:16 39.64208 -120.14757 36086 ft 441 kts 249°
2026-05-08 06:16 39.61875 -120.22125 36102 ft 441 kts 249°
2026-05-08 06:17 39.58349 -120.33175 36101 ft 442 kts 248°
2026-05-08 06:17 39.55996 -120.40548 36108 ft 442 kts 249°
2026-05-08 06:18 39.53639 -120.47917 36104 ft 443 kts 249°
2026-05-08 06:18 39.51292 -120.55234 36108 ft 443 kts 249°
2026-05-08 06:19 39.48917 -120.62613 36108 ft 444 kts 248°
2026-05-08 06:19 39.46537 -120.69993 36108 ft 444 kts 248°
2026-05-08 06:20 39.44151 -120.77368 36101 ft 444 kts 248°
2026-05-08 06:20 39.41777 -120.84690 36101 ft 444 kts 248°
2026-05-08 06:21 39.39380 -120.92062 36097 ft 444 kts 248°
2026-05-08 06:21 39.36985 -120.99411 36129 ft 444 kts 249°
2026-05-08 06:22 39.34586 -121.06753 36140 ft 443 kts 248°
2026-05-08 06:22 39.33243 -121.10354 36116 ft 445 kts 237°
2026-05-08 06:22 39.31307 -121.13466 36180 ft 445 kts 231°
2026-05-08 06:23 39.27257 -121.19535 36132 ft 446 kts 231°
2026-05-08 06:23 39.23231 -121.25618 36041 ft 446 kts 231°
2026-05-08 06:24 39.19220 -121.31737 36039 ft 447 kts 231°
2026-05-08 06:24 39.15214 -121.37863 36038 ft 447 kts 231°
2026-05-08 06:25 39.11202 -121.43989 36033 ft 447 kts 231°
2026-05-08 06:25 39.07211 -121.50069 36048 ft 448 kts 231°
2026-05-08 06:26 39.03188 -121.56185 36040 ft 448 kts 231°
2026-05-08 06:26 38.99160 -121.62296 36048 ft 448 kts 231°
2026-05-08 06:27 38.95129 -121.68400 36047 ft 448 kts 231°
2026-05-08 06:27 38.91089 -121.74507 36042 ft 448 kts 231°
2026-05-08 06:28 38.87046 -121.80606 36036 ft 449 kts 231°
2026-05-08 06:28 38.82999 -121.86699 36041 ft 449 kts 231°
2026-05-08 06:29 38.78946 -121.92789 36039 ft 449 kts 231°
2026-05-08 06:29 38.74889 -121.98875 36039 ft 449 kts 231°
2026-05-08 06:30 38.70844 -122.04930 35667 ft 456 kts 231°
2026-05-08 06:30 38.68771 -122.08030 35046 ft 457 kts 231°
2026-05-08 06:30 38.66697 -122.11128 34331 ft 458 kts 231°
2026-05-08 06:31 38.64623 -122.14221 33542 ft 458 kts 231°
2026-05-08 06:31 38.62544 -122.17320 32705 ft 459 kts 230°
2026-05-08 06:31 38.60461 -122.20422 31890 ft 460 kts 230°
2026-05-08 06:31 38.58379 -122.23518 31180 ft 458 kts 230°
2026-05-08 06:32 38.56316 -122.26585 30626 ft 453 kts 230°
2026-05-08 06:32 38.54271 -122.29621 30049 ft 448 kts 230°
2026-05-08 06:32 38.52248 -122.32622 29408 ft 443 kts 230°
2026-05-08 06:32 38.50251 -122.35583 28818 ft 437 kts 230°
2026-05-08 06:33 38.48274 -122.38511 28228 ft 432 kts 230°
2026-05-08 06:33 38.46334 -122.41382 27940 ft 421 kts 230°
2026-05-08 06:33 38.44451 -122.44166 27595 ft 411 kts 230°
2026-05-08 06:33 38.42605 -122.46907 27186 ft 404 kts 230°
2026-05-08 06:34 38.40780 -122.49621 26639 ft 402 kts 230°
2026-05-08 06:34 38.38988 -122.52285 26140 ft 399 kts 230°
2026-05-08 06:34 38.37188 -122.54960 25629 ft 396 kts 230°
2026-05-08 06:34 38.35399 -122.57616 25111 ft 394 kts 230°
2026-05-08 06:35 38.33619 -122.60254 24573 ft 393 kts 230°
2026-05-08 06:35 38.31843 -122.62885 24062 ft 391 kts 230°
2026-05-08 06:35 38.30068 -122.65513 23494 ft 390 kts 230°
2026-05-08 06:35 38.28305 -122.68120 22915 ft 387 kts 230°
2026-05-08 06:36 38.26552 -122.70709 22368 ft 384 kts 230°
2026-05-08 06:36 38.24761 -122.73211 21824 ft 382 kts 222°
2026-05-08 06:36 38.22485 -122.74931 21285 ft 383 kts 200°
2026-05-08 06:36 38.19896 -122.75643 20791 ft 382 kts 185°
2026-05-08 06:37 38.17253 -122.75373 20285 ft 382 kts 170°
2026-05-08 06:37 38.14665 -122.74651 19756 ft 381 kts 168°
2026-05-08 06:37 38.12099 -122.73857 19246 ft 379 kts 168°
2026-05-08 06:37 38.09541 -122.73059 18722 ft 378 kts 167°
2026-05-08 06:38 38.06994 -122.72278 18172 ft 376 kts 169°
2026-05-08 06:38 38.04449 -122.71527 17612 ft 374 kts 169°
2026-05-08 06:38 38.01921 -122.70786 17087 ft 370 kts 169°
2026-05-08 06:38 37.99421 -122.70065 16581 ft 367 kts 169°
2026-05-08 06:39 37.96932 -122.69338 15960 ft 367 kts 169°
2026-05-08 06:39 37.94449 -122.68621 15441 ft 365 kts 168°
2026-05-08 06:39 37.92011 -122.67918 14932 ft 363 kts 170°
2026-05-08 06:39 37.89623 -122.66902 14400 ft 364 kts 151°
2026-05-08 06:40 37.87601 -122.64991 13931 ft 363 kts 142°
2026-05-08 06:40 37.85694 -122.62906 13352 ft 361 kts 142°
2026-05-08 06:40 37.83797 -122.60842 12826 ft 358 kts 141°
2026-05-08 06:40 37.81907 -122.58809 12317 ft 355 kts 141°
2026-05-08 06:41 37.80030 -122.56812 11812 ft 351 kts 141°
2026-05-08 06:41 37.78165 -122.54837 11374 ft 347 kts 141°
2026-05-08 06:41 37.76347 -122.52914 11247 ft 333 kts 141°
2026-05-08 06:41 37.74607 -122.51073 11091 ft 321 kts 142°
2026-05-08 06:42 37.72925 -122.49295 11010 ft 308 kts 141°
2026-05-08 06:42 37.71305 -122.47574 11001 ft 302 kts 142°
2026-05-08 06:42 37.69700 -122.45866 11011 ft 302 kts 141°
2026-05-08 06:42 37.68094 -122.44157 11008 ft 303 kts 142°
2026-05-08 06:43 37.66478 -122.42440 11000 ft 303 kts 141°
2026-05-08 06:43 37.64868 -122.40729 10995 ft 303 kts 142°
2026-05-08 06:43 37.63261 -122.39023 10991 ft 302 kts 142°
2026-05-08 06:43 37.61654 -122.37320 10989 ft 302 kts 142°
2026-05-08 06:44 37.59877 -122.35863 10644 ft 308 kts 153°
2026-05-08 06:44 37.57974 -122.34645 10329 ft 305 kts 155°
2026-05-08 06:44 37.56057 -122.33520 9993 ft 302 kts 157°
2026-05-08 06:44 37.54172 -122.32471 9934 ft 288 kts 158°
2026-05-08 06:45 37.52311 -122.31473 9390 ft 292 kts 159°
2026-05-08 06:45 37.50451 -122.30488 9022 ft 290 kts 159°
2026-05-08 06:45 37.48601 -122.29512 8725 ft 286 kts 159°
2026-05-08 06:45 37.46775 -122.28549 8420 ft 283 kts 159°
2026-05-08 06:46 37.44975 -122.27596 8146 ft 279 kts 159°
2026-05-08 06:46 37.43200 -122.26650 7881 ft 275 kts 159°
2026-05-08 06:46 37.41455 -122.25709 7581 ft 272 kts 159°
2026-05-08 06:46 37.39711 -122.24773 7220 ft 272 kts 159°
2026-05-08 06:47 37.37970 -122.23846 6915 ft 270 kts 159°
2026-05-08 06:47 37.36984 -122.23320 6829 ft 268 kts 158°
2026-05-08 06:47 37.36333 -122.22973 6779 ft 266 kts 159°
2026-05-08 06:48 37.34639 -122.22062 6723 ft 265 kts 159°
2026-05-08 06:48 37.32973 -122.20994 6467 ft 276 kts 142°
2026-05-08 06:48 37.31893 -122.19007 6228 ft 280 kts 107°
2026-05-08 06:48 37.31874 -122.16640 6053 ft 279 kts 71°
2026-05-08 06:49 37.32864 -122.14571 6045 ft 277 kts 46°
2026-05-08 06:49 37.34345 -122.13044 5997 ft 277 kts 26°
2026-05-08 06:49 37.36132 -122.12219 6004 ft 272 kts 13°
2026-05-08 06:49 37.37987 -122.12001 5919 ft 268 kts 348°
2026-05-08 06:50 37.39808 -122.12586 5605 ft 272 kts 342°
2026-05-08 06:50 37.41627 -122.13242 5244 ft 271 kts 342°
2026-05-08 06:50 37.43438 -122.13885 4906 ft 270 kts 342°
2026-05-08 06:50 37.45238 -122.14517 4565 ft 268 kts 343°
2026-05-08 06:51 37.47026 -122.15140 4233 ft 266 kts 343°
2026-05-08 06:51 37.48205 -122.15547 4015 ft 267 kts 343°
2026-05-08 06:51 37.50017 -122.16173 3699 ft 271 kts 343°
2026-05-08 06:51 37.51833 -122.16799 3373 ft 269 kts 343°
2026-05-08 06:52 37.53516 -122.17642 3331 ft 248 kts 321°
2026-05-08 06:52 37.54478 -122.19273 3202 ft 223 kts 293°
2026-05-08 06:52 37.55079 -122.20981 3062 ft 204 kts 295°
2026-05-08 06:52 37.55661 -122.22526 2932 ft 186 kts 296°
2026-05-08 06:53 37.56210 -122.23986 2480 ft 186 kts 295°
2026-05-08 06:53 37.56794 -122.25421 2177 ft 178 kts 296°
2026-05-08 06:53 37.57357 -122.26763 1887 ft 171 kts 297°
2026-05-08 06:53 37.57903 -122.28024 1657 ft 154 kts 296°
2026-05-08 06:54 37.58383 -122.29177 1530 ft 146 kts 296°
2026-05-08 06:54 37.58834 -122.30240 1291 ft 134 kts 297°
2026-05-08 06:54 37.59263 -122.31218 1040 ft 121 kts 297°
2026-05-08 06:54 37.59651 -122.32140 731 ft 116 kts 294°
2026-05-08 06:55 37.59995 -122.33028 483 ft 113 kts 295°
2026-05-08 06:55 37.60370 -122.33918 384 ft 117 kts 295°
2026-05-08 06:55 37.60756 -122.34851 270 ft 123 kts 295°
2026-05-08 06:55 37.61165 -122.35818 134 ft 126 kts 295°
2026-05-08 06:56 37.61567 -122.36779 22 ft 118 kts 296°
2026-05-08 06:56 37.61880 -122.37527 18 ft 77 kts 298°
2026-05-08 06:56 37.62016 -122.37851 23 ft 15 kts 303°
2026-05-08 06:56 37.62070 -122.37978 24 ft 19 kts 297°
2026-05-08 06:57 37.62136 -122.38138 26 ft 23 kts 297°
2026-05-08 06:57 37.62135 -122.38316 21 ft 23 kts 201°
2026-05-08 06:57 37.62110 -122.38326 21 ft 0 kts 198°
2026-05-08 06:57 37.62107 -122.38327 23 ft 2 kts 198°
2026-05-08 06:58 37.62075 -122.38341 22 ft 8 kts 198°
2026-05-08 06:58 37.62058 -122.38415 20 ft 13 kts 279°
2026-05-08 06:58 37.62026 -122.38519 17 ft 11 kts 207°
2026-05-08 06:58 37.61973 -122.38494 18 ft 9 kts 136°
2026-05-08 06:59 37.61963 -122.38483 17 ft 0 kts 137°